TimeMST,TemperatureF,Dew PointF,Humidity,Sea Level PressureIn,VisibilityMPH,Wind Direction,Wind SpeedMPH,Gust SpeedMPH,PrecipitationIn,Events,Conditions,WindDirDegrees,DateUTC
12:57 AM,23.0,14.0,68,30.06,10.0,Calm,Calm,-,N/A,,Clear,0,2014-01-09 07:57:00
1:57 AM,23.0,14.0,68,30.04,10.0,WNW,3.5,-,N/A,,Clear,300,2014-01-09 08:57:00
2:57 AM,24.1,12.9,62,30.04,10.0,SSW,3.5,-,N/A,,Clear,210,2014-01-09 09:57:00
3:57 AM,24.1,12.9,62,30.04,10.0,Calm,Calm,-,N/A,,Mostly Cloudy,0,2014-01-09 10:57:00
4:57 AM,23.0,12.9,65,30.04,10.0,WSW,4.6,-,N/A,,Clear,240,2014-01-09 11:57:00
5:57 AM,23.0,12.9,65,30.07,10.0,WSW,3.5,-,N/A,,Clear,240,2014-01-09 12:57:00
6:57 AM,24.1,12.0,60,30.09,10.0,West,4.6,-,N/A,,Clear,260,2014-01-09 13:57:00
7:57 AM,24.1,10.9,57,30.11,10.0,Calm,Calm,-,N/A,,Clear,0,2014-01-09 14:57:00
8:57 AM,32.0,15.1,50,30.07,10.0,Variable,3.5,-,N/A,,Clear,0,2014-01-09 15:57:00
9:57 AM,39.0,12.0,33,30.07,10.0,Calm,Calm,-,N/A,,Clear,0,2014-01-09 16:57:00
10:57 AM,44.1,12.9,28,30.03,10.0,SSW,8.1,-,N/A,,Clear,200,2014-01-09 17:57:00
11:57 AM,46.9,12.0,24,29.98,10.0,SW,12.7,-,N/A,,Clear,220,2014-01-09 18:57:00
12:57 PM,46.9,12.0,24,29.96,10.0,SSW,13.8,-,N/A,,Partly Cloudy,200,2014-01-09 19:57:00
1:57 PM,45.0,6.1,20,29.97,10.0,WSW,13.8,20.7,N/A,,Scattered Clouds,250,2014-01-09 20:57:00
2:57 PM,43.0,9.0,25,29.96,10.0,WSW,10.4,-,N/A,,Overcast,240,2014-01-09 21:57:00
4:57 PM,39.9,14.0,35,29.97,10.0,SSW,11.5,-,N/A,,Clear,210,2014-01-09 23:57:00
5:57 PM,34.0,16.0,48,30.00,10.0,SW,9.2,-,N/A,,Clear,220,2014-01-10 00:57:00
6:57 PM,30.9,16.0,54,30.02,10.0,WSW,5.8,-,N/A,,Clear,240,2014-01-10 01:57:00
7:57 PM,33.1,14.0,46,30.03,10.0,WSW,8.1,-,N/A,,Clear,240,2014-01-10 02:57:00
8:57 PM,33.1,14.0,46,30.01,10.0,West,8.1,-,N/A,,Clear,260,2014-01-10 03:57:00
9:57 PM,27.0,16.0,63,30.01,10.0,SW,10.4,-,N/A,,Clear,220,2014-01-10 04:57:00
10:57 PM,28.0,15.1,58,29.99,10.0,WSW,6.9,-,N/A,,Clear,250,2014-01-10 05:57:00
11:57 PM,30.0,12.9,49,29.96,10.0,South,5.8,-,N/A,,Clear,190,2014-01-10 06:57:00